Location: *
(35.2348°S, 91.3916°E)
Time: 21:01:12
(UTC+00:00)

Cosmos 1992 Rocket - Pass Details

Date: 23 October 2019
Orbit: 760 x 765 km, 74.0° (Epoch: 17 November)

Event Time Altitude Azimuth Distance (km) Brightness Sun altitude
Rises 22:07:50 0° 346° (NNW) 3,210 6.9 -11.2°
Reaches altitude 10° 22:10:10 10° 346° (NNW) 2,293 6.1 -10.7°
Maximum altitude 22:15:23 85° 73° (ENE) 778 4.1 -9.7°
Drops below altitude 10° 22:20:41 10° 161° (SSE) 2,327 7.1 -8.7°
Sets 22:23:05 0° 161° (SSE) 3,261 7.9 -8.3°
